[[{"header":{"parameterUnit":"m.s-1","parameterCategory":2,"la1":30.2991,"la2":30.254,"lo1":-89.0895,"lo2":-89.0444,"dy":0.0017,"dx":0.0017,"nx":28,"ny":28,"refTime":"2023-09-01T09:00:00:Z","depth":"0","parameterNumber":2,"parameterNumberName":"U-component_of_CURRENTS"},"data":[0,0,0,0,0,0,0,0,0,0,0,0,0,0,0,0,0,0,0,0,0,0,0,0,0,0,0,0,0,0,0,0,0,0,0,0,0,0,0,0,0,0,0,0,0,0,0,0,0,0,0,0,0,0,0,0,0,0,0.007,0.007,0,0.0077,0.0077,0.0077,0.009,0.009,0.009,0.0091,0.0105,0.0105,0.0106,0,0,0,0,0,0,0,0,0,0,0,0,0,0.0062,0.0062,0.007,0.007,0.007,0.0077,0.0077,0.0077,0.009,0.009,0.009,0.0091,0.0105,0.0105,0.0106,0,0,0,0,0,0,0,0,0,0,0,0,0,0.0067,0.0062,0.007,0.0077,0.0078,0.0077,0.0077,0.0077,0.009,0.009,0.009,0.0091,0.0105,0.0105,0.0106,0.01,0,0,0.0106,0.0107,0,0,0,0,0,0,0,0,0.0067,0.0067,0.0076,0.0076,0.0077,0.0083,0.008,0.0085,0.009,0.0085,0.0091,0.0091,0.0098,0.0099,0.01,0.0101,0.0101,0.0106,0.0107,0.0107,0.0107,0,0,0,0,0,0,0,0.0066,0.0067,0.0073,0.0076,0.0077,0.0078,0.008,0.0081,0.009,0.0086,0.0087,0.0087,0.0099,0.0099,0.01,0.0102,0.0106,0.0107,0.0107,0.0107,0.0105,0.0105,0,0,0,0,0,0,0.0065,0.0067,0.0072,0.0073,0.0073,0.0078,0.008,0.0081,0.009,0.0091,0.0087,0.0088,0.0099,0.01,0.0101,0.01,0.0107,0.0107,0.0107,0.0105,0.0105,0.0105,0,0,0,0,0,0,0.0065,0.0066,0.0072,0.007,0.0071,0.0078,0.0079,0.0081,0.0085,0.009,0.0092,0.0091,0.0099,0.01,0.0102,0.0101,0.0107,0.0107,0.0106,0.0105,0.0105,0.0096,0,0,0,0,0,0,0.0065,0.0066,0.0068,0.007,0.0071,0.0072,0.0079,0.0081,0.0085,0.0086,0.0094,0.0096,0.0099,0.0102,0.0103,0.0101,0.0108,0.0106,0.0105,0.0105,0.0096,0.0095,0.0094,0,0,0,0,0,0.0065,0.0065,0.0068,0.0068,0.0073,0.0072,0.0072,0.0079,0.0085,0.0085,0.009,0.0096,0.01,0.0102,0.0103,0.0101,0.0106,0.0105,0.0105,0.0097,0.0096,0.0094,0,0,0,0,0,0,0.0063,0.0066,0.0069,0.0071,0.0072,0.0074,0.0077,0.008,0.0084,0.0087,0.0093,0.0094,0.0096,0.0099,0.0101,0.0099,0.0104,0.0104,0.0097,0.0096,0.0095,0.0101,0.0108,0,0,0,0,0,0.0063,0.0066,0.0067,0.0069,0.0069,0.0073,0.0075,0.0078,0.0081,0.0084,0.0088,0.0092,0.0093,0.0095,0.0097,0.0096,0.0105,0.0096,0.0095,0.0094,0.0098,0.0103,0.0103,0.0103,0.0103,0.0103,0,0,0.0063,0.0066,0.0067,0.0069,0.0072,0.007,0.0075,0.0078,0.0077,0.0084,0.0086,0.0089,0.0092,0.0091,0.0092,0.0094,0.0099,0.0093,0.0092,0.0098,0.0103,0.0103,0.0103,0.0103,0.0103,0.0103,0,0,0.0062,0.0067,0.0068,0.0067,0.007,0.007,0.0071,0.0073,0.0076,0.0076,0.008,0.0082,0.0084,0.0086,0.0086,0.008,0.0093,0.0081,0.0081,0.0085,0.0085,0.0085,0.0101,0.0103,0.0081,0.0081,0.0081,0,0.0062,0.0065,0.0067,0.0066,0.0067,0.007,0.0069,0.0069,0.0071,0.0072,0.0076,0.0079,0.0082,0.008,0.008,0.0078,0.0088,0.0085,0.0084,0.0084,0.0085,0.0101,0.0103,0.008,0.008,0.008,0.008,0,0.0061,0.0063,0.0064,0.0064,0.0062,0.0063,0.0061,0.0062,0.0066,0.0066,0.0067,0.007,0.0074,0.0072,0.0075,0.0078,0.0086,0.0082,0.0088,0.0084,0.0101,0.0104,0.0079,0.008,0.008,0.008,0,0,0.0064,0.0063,0.0065,0.0065,0.0063,0.0062,0.0058,0.0057,0.0058,0.0058,0.006,0.0061,0.0067,0.0069,0.0071,0.0075,0.0087,0.0082,0.0083,0.01,0.0108,0.019,0.02,0.0083,0.0083,0.0083,0.012,0,0.0065,0.0064,0.0062,0.0061,0.0059,0.0058,0.0054,0.0052,0.0053,0.0054,0.0057,0.006,0.0064,0.0069,0.0072,0.0084,0.0092,0.0079,0.0107,0.0109,0.0183,0.0205,0.0324,0.0373,0.0122,0.0123,0.0123,0,0.0068,0.0067,0.0065,0.006,0.006,0.0058,0.0056,0.0053,0.0052,0.0053,0.0057,0.0061,0.007,0.0071,0.0093,0.0085,0.0099,0.0107,0.0108,0.0191,0.0195,0.0336,0.0387,0.0433,0.0127,0.0126,0.0126,0,0.0074,0.007,0.007,0.0069,0.0062,0.0062,0.006,0.0056,0.0057,0.0059,0.0065,0.0068,0.0082,0.009,0.0119,0.0104,0.0148,0.0126,0.0213,0.0218,0.033,0.0346,0.0434,0.0143,0.0143,0.0143,0.0143,0,0.0078,0.008,0.0074,0.0076,0.0075,0.0068,0.0069,0.0067,0.0066,0.0079,0.0071,0.0093,0.0089,0.0115,0.0126,0.0196,0.0157,0.0228,0.0239,0.0332,0.0346,0.04,0.0389,0.0144,0.0144,0.0143,0.0143,0,0.0088,0.0085,0.0084,0.0079,0.0079,0.0081,0.0079,0.0081,0.008,0.0099,0.0103,0.0118,0.0174,0.0181,0.0208,0.0227,0.0294,0.0295,0.0414,0.044,0.0568,0.0552,0.0549,0.0522,0.0396,0.0399,0.0401,0,0.0093,0.0094,0.0091,0.0094,0.0094,0.0094,0.0097,0.0092,0.0099,0.013,0.0145,0.0198,0.0273,0.0348,0.0398,0.0453,0.0401,0.0564,0.0559,0.0613,0.0602,0.0495,0.0462,0.0698,0.0702,0.0706,0.0709,0,0.0102,0.0103,0.0103,0.011,0.0115,0.012,0.0127,0.0134,0.0144,0.0179,0.0253,0.0322,0.0433,0.0583,0.0652,0.0672,0.0594,0.0638,0.0664,0.0833,0.0752,0.0721,0.0629,0.074,0.0737,0.0734,0.0733,0.0731,0.0112,0.0115,0.012,0.013,0.0138,0.0161,0.0183,0.0203,0.0248,0.0336,0.0367,0.0526,0.0739,0.0886,0.0872,0.0978,0.0824,0.1012,0.0984,0.0864,0.0861,0.0848,0.0988,0.0986,0.0985,0.0984,0.0983,0,0.0126,0.0135,0.0141,0.016,0.0184,0.0186,0.0217,0.026,0.0344,0.0464,0.0571,0.0877,0.1081,0.1182,0.1365,0.1364,0.1206,0.1321,0.1212,0.1153,0.1158,0.12,0.1432,0.1432,0.1432,0.1432,0.1432,0.1432,0.0135,0.0151,0.0158,0.0208,0.0228,0.0282,0.0316,0.0388,0.0485,0.0706,0.0902,0.1047,0.1322,0.1605,0.1711,0.1645,0.1482,0.1457,0.1317,0.1385,0.1353,0.1323,0.1362,0.1624,0.1624,0.1312,0.131,0.1309]},{"header":{"parameterUnit":"m.s-1","parameterCategory":2,"la1":30.2991,"la2":30.254,"lo1":-89.0895,"lo2":-89.0444,"dy":0.0017,"dx":0.0017,"nx":28,"ny":28,"refTime":"2023-09-01T09:00:00:Z","depth":"0","parameterNumber":3,"parameterNumberName":"V-component_of_CURRENTS"},"data":[0,0,0,0,0,0,0,0,0,0,0,0,0,0,0,0,0,0,0,0,0,0,0,0,0,0,0,0,0,0,0,0,0,0,0,0,0,0,0,0,0,0,0,0,0,0,0,0,0,0,0,0,0,0,0,0,0,0,0.0013,0.0013,0,-0.0001,-0.0001,-0.0001,-0.0009,-0.0009,-0.0009,-0.0009,-0.0022,-0.0023,-0.0023,0,0,0,0,0,0,0,0,0,0,0,0,0,0.0025,0.0025,0.0013,0.0013,0.0013,-0.0001,-0.0001,-0.0001,-0.0009,-0.0009,-0.0009,-0.0009,-0.0022,-0.0022,-0.0023,0,0,0,0,0,0,0,0,0,0,0,0,0,0.0016,0.0025,0.0013,0.0007,0.0006,-0.0001,-0.0001,-0.0001,-0.0009,-0.0009,-0.0009,-0.0009,-0.0022,-0.0022,-0.0023,-0.0025,0,0,-0.0024,-0.0025,0,0,0,0,0,0,0,0,0.0017,0.0016,0.0008,0.0007,0.0007,-0.0003,-0.0001,-0.0009,-0.0009,-0.0004,-0.0009,-0.0009,-0.0016,-0.0017,-0.0019,-0.0026,-0.0027,-0.0024,-0.0025,-0.0025,-0.0025,0,0,0,0,0,0,0,0.0017,0.0016,0.0007,0.0008,0.0007,0.0003,0.0002,-0.0003,-0.0009,-0.0004,-0.0005,-0.0006,-0.0016,-0.0019,-0.002,-0.0027,-0.0024,-0.0025,-0.0025,-0.0025,-0.0039,-0.0039,0,0,0,0,0,0,0.002,0.0017,0.0008,0.0007,0.0012,0.0003,0.0001,-0.0,-0.0009,-0.0011,-0.0006,-0.0006,-0.0018,-0.0019,-0.002,-0.0026,-0.0025,-0.0025,-0.0026,-0.0039,-0.0039,-0.0039,0,0,0,0,0,0,0.002,0.0019,0.0008,0.0012,0.001,0.0003,0.0001,-0.0,-0.0005,-0.0011,-0.0012,-0.0009,-0.0018,-0.002,-0.0025,-0.0026,-0.0026,-0.0026,-0.0039,-0.0039,-0.0039,-0.0036,0,0,0,0,0,0,0.002,0.0019,0.0018,0.0012,0.001,0.0003,0.0001,-0.0001,-0.0005,-0.0006,-0.0014,-0.0015,-0.0018,-0.0025,-0.0026,-0.0027,-0.0027,-0.0039,-0.0039,-0.0039,-0.0036,-0.0036,-0.0036,0,0,0,0,0,0.0021,0.002,0.0018,0.0017,0.0009,0.0003,0.0002,-0.0004,-0.0005,-0.0008,-0.0013,-0.0015,-0.0026,-0.0025,-0.0027,-0.0028,-0.0039,-0.0039,-0.0039,-0.0036,-0.0036,-0.0036,0,0,0,0,0,0,0.0025,0.0019,0.0017,0.0014,0.0009,0.0002,-0.0001,-0.0004,-0.001,-0.0011,-0.0016,-0.0018,-0.0024,-0.0026,-0.0025,-0.0032,-0.0032,-0.0033,-0.003,-0.003,-0.003,-0.0033,-0.0027,0,0,0,0,0,0.0026,0.0022,0.0017,0.0014,0.0012,0.0005,0.0002,-0.0002,-0.0007,-0.001,-0.0015,-0.002,-0.0025,-0.0028,-0.0033,-0.0037,-0.004,-0.0038,-0.0038,-0.0038,-0.0042,-0.0045,-0.0045,-0.0039,-0.0039,-0.0039,0,0,0.0027,0.0023,0.0021,0.0015,0.001,0.0004,0.0003,-0.0002,-0.0007,-0.001,-0.0018,-0.0021,-0.0027,-0.0032,-0.0034,-0.0034,-0.0041,-0.0038,-0.0038,-0.0042,-0.0045,-0.0045,-0.0046,-0.0039,-0.0039,-0.0039,0,0,0.0026,0.0023,0.0019,0.0015,0.0007,0.0003,0.0002,-0.0005,-0.0008,-0.0015,-0.0019,-0.0023,-0.0031,-0.0034,-0.0037,-0.004,-0.0042,-0.004,-0.0041,-0.0044,-0.0045,-0.0045,-0.0048,-0.0049,-0.0039,-0.0039,-0.0039,0,0.0027,0.002,0.0017,0.0011,0.0007,0.0003,-0.0003,-0.0007,-0.0015,-0.0017,-0.0018,-0.003,-0.0033,-0.004,-0.004,-0.0041,-0.0042,-0.0041,-0.0044,-0.0045,-0.0045,-0.0048,-0.0049,-0.0038,-0.0038,-0.0038,-0.0038,0,0.0022,0.0016,0.0013,0.0004,-0.0,-0.0006,-0.0011,-0.0015,-0.0019,-0.0023,-0.003,-0.0034,-0.0041,-0.0041,-0.0042,-0.0047,-0.0046,-0.0044,-0.0044,-0.0046,-0.0048,-0.005,-0.0038,-0.0038,-0.0038,-0.0038,0,0,0.0027,0.0012,0.001,0.0004,-0.0005,-0.0009,-0.0015,-0.0022,-0.0026,-0.0032,-0.0038,-0.0045,-0.0046,-0.0049,-0.0049,-0.005,-0.0054,-0.0048,-0.0048,-0.0051,-0.0059,-0.0055,-0.0055,-0.005,-0.0051,-0.0051,-0.0059,0,0.0022,0.001,0.0004,-0.0008,-0.0014,-0.0019,-0.0024,-0.0029,-0.0034,-0.0039,-0.0043,-0.005,-0.0049,-0.0051,-0.0052,-0.0053,-0.0056,-0.0052,-0.0057,-0.0058,-0.0053,-0.0056,-0.0049,-0.0055,-0.006,-0.006,-0.006,0,0.0018,0.001,-0.0001,-0.0014,-0.0017,-0.0024,-0.0033,-0.0038,-0.0044,-0.0047,-0.0052,-0.0055,-0.006,-0.0058,-0.0063,-0.0059,-0.0061,-0.0061,-0.0062,-0.0061,-0.0055,-0.0055,-0.0057,-0.0144,-0.0062,-0.0061,-0.0061,0,0.002,0.0005,-0.0004,-0.0009,-0.0021,-0.0027,-0.0034,-0.004,-0.0045,-0.0052,-0.0055,-0.0061,-0.0062,-0.0067,-0.0065,-0.0065,-0.0069,-0.0069,-0.0069,-0.0069,-0.0066,-0.0065,-0.0153,-0.0077,-0.0077,-0.0077,-0.0077,0,0.0018,0.001,-0.0005,-0.001,-0.0021,-0.0028,-0.0039,-0.0044,-0.0051,-0.0051,-0.006,-0.0054,-0.0064,-0.0064,-0.0067,-0.0069,-0.0071,-0.0073,-0.0071,-0.0064,-0.0063,-0.0141,-0.0197,-0.0077,-0.0077,-0.0077,-0.0077,0,0.0021,0.0011,-0.0001,-0.0016,-0.0021,-0.0028,-0.0044,-0.005,-0.0055,-0.0055,-0.0057,-0.0053,-0.0046,-0.0056,-0.0058,-0.0069,-0.0119,-0.0074,-0.0065,-0.0063,-0.0146,-0.0201,-0.03,-0.0321,-0.008,-0.008,-0.008,0,0.0022,0.0016,-0.0004,-0.0011,-0.0019,-0.0032,-0.0039,-0.0051,-0.0054,-0.0045,-0.0041,-0.0035,-0.0002,-0.001,-0.0038,-0.0051,-0.0119,-0.0067,-0.0069,-0.0156,-0.0217,-0.0268,-0.0282,-0.0064,-0.0064,-0.0063,-0.0063,0,0.0025,0.0016,0.0006,-0.0006,-0.0018,-0.003,-0.004,-0.0041,-0.0042,-0.0018,0.0025,0.0059,0.0044,0.005,0.0009,-0.0012,-0.0143,-0.0065,-0.016,-0.0218,-0.0277,-0.0294,-0.0057,-0.0062,-0.0062,-0.0062,-0.0062,-0.0062,0.0028,0.0022,0.001,0.0,-0.0011,-0.0015,-0.0005,0.0009,0.0038,0.0119,0.0111,0.023,0.016,0.0118,0.003,-0.0129,-0.0139,-0.0163,-0.0223,-0.0268,-0.0294,-0.0056,-0.0057,-0.0057,-0.0057,-0.0057,-0.0057,0,0.0035,0.0028,0.0019,0.001,0.001,0.0,0.001,0.0053,0.0131,0.0241,0.0327,0.0417,0.0289,0.0152,-0.0087,-0.0246,-0.0309,-0.0341,-0.0422,-0.0426,-0.0213,-0.0218,-0.0249,-0.0249,-0.0249,-0.0249,-0.0249,-0.0249,0.0037,0.0033,0.0029,0.0037,0.0037,0.0062,0.0082,0.0172,0.0274,0.0487,0.0641,0.0739,0.0659,0.0039,-0.0359,-0.0453,-0.0572,-0.0618,-0.0671,-0.0543,-0.0532,-0.0521,-0.0538,-0.0637,-0.0637,-0.085,-0.0853,-0.0854]}],[{"header":{"parameterUnit":"m.s-1","parameterCategory":2,"la1":30.2991,"la2":30.254,"lo1":-89.0895,"lo2":-89.0444,"dy":0.0017,"dx":0.0017,"nx":28,"ny":28,"refTime":"2023-09-01T09:00:00:Z","depth":"2","parameterNumber":2,"parameterNumberName":"U-component_of_CURRENTS"},"data":[0,0,0,0,0,0,0,0,0,0,0,0,0,0,0,0,0,0,0,0,0,0,0,0,0,0,0,0,0,0,0,0,0,0,0,0,0,0,0,0,0,0,0,0,0,0,0,0,0,0,0,0,0,0,0,0,0,0,-0.0009,-0.0008,0,0.0,0.0,0.0,0.0014,0.0014,0.0014,0.0014,0.0028,0.0028,0.0028,0,0,0,0,0,0,0,0,0,0,0,0,0,-0.002,-0.002,-0.0009,-0.0008,-0.0008,0.0,0.0,0.0,0.0014,0.0014,0.0014,0.0014,0.0028,0.0028,0.0028,0,0,0,0,0,0,0,0,0,0,0,0,0,-0.0014,-0.002,-0.0009,-0.0001,0.0,0.0,0.0,0.0,0.0014,0.0014,0.0014,0.0015,0.0028,0.0028,0.0028,0.0022,0,0,0.0029,0.0029,0,0,0,0,0,0,0,0,-0.0014,-0.0013,-0.0002,-0.0001,-0.0,0.0006,0.0001,0.0008,0.0013,0.0008,0.0014,0.0015,0.0021,0.0022,0.0022,0.0022,0.0023,0.0029,0.0029,0.0029,0.0029,0,0,0,0,0,0,0,-0.0014,-0.0013,-0.0005,-0.0002,-0.0001,0.0,0.0002,0.0002,0.0012,0.0009,0.001,0.0011,0.0021,0.0022,0.0023,0.0023,0.0029,0.0029,0.0029,0.0029,0.0026,0.0026,0,0,0,0,0,0,-0.0015,-0.0014,-0.0006,-0.0005,-0.0006,0.0,0.0002,0.0004,0.0012,0.0014,0.0011,0.0011,0.0021,0.0022,0.0023,0.0023,0.0029,0.0029,0.0029,0.0026,0.0026,0.0026,0,0,0,0,0,0,-0.0016,-0.0015,-0.0006,-0.0009,-0.0008,0.0,0.0002,0.0004,0.0009,0.0014,0.0015,0.0015,0.0022,0.0023,0.0025,0.0023,0.0029,0.0029,0.0026,0.0026,0.0026,0.0018,0,0,0,0,0,0,-0.0016,-0.0015,-0.0012,-0.0009,-0.0008,-0.0005,0.0002,0.0004,0.0009,0.001,0.0018,0.0019,0.0022,0.0024,0.0025,0.0024,0.0029,0.0027,0.0026,0.0026,0.0019,0.0018,0.0017,0,0,0,0,0,-0.0016,-0.0016,-0.0012,-0.0011,-0.0005,-0.0005,-0.0004,0.0003,0.0009,0.0009,0.0014,0.0019,0.0023,0.0024,0.0025,0.0024,0.0027,0.0026,0.0026,0.0019,0.0018,0.0017,0,0,0,0,0,0,-0.0019,-0.0014,-0.001,-0.0008,-0.0006,-0.0003,-0.0,0.0004,0.0008,0.0011,0.0016,0.0018,0.0019,0.0021,0.0023,0.0022,0.0026,0.0025,0.002,0.0019,0.0018,0.0024,0.0029,0,0,0,0,0,-0.0019,-0.0016,-0.0013,-0.001,-0.0009,-0.0004,-0.0002,0.0002,0.0005,0.0008,0.0012,0.0016,0.0016,0.0018,0.0019,0.0018,0.0027,0.0018,0.0017,0.0016,0.0021,0.0025,0.0025,0.0024,0.0024,0.0024,0,0,-0.002,-0.0016,-0.0014,-0.0011,-0.0007,-0.0008,-0.0002,0.0002,0.0001,0.0008,0.0011,0.0013,0.0015,0.0014,0.0014,0.0017,0.0022,0.0016,0.0015,0.002,0.0024,0.0025,0.0025,0.0024,0.0024,0.0024,0,0,-0.0021,-0.0015,-0.0014,-0.0013,-0.0008,-0.0007,-0.0006,-0.0002,0.0001,0.0001,0.0005,0.0007,0.0008,0.0009,0.001,0.0004,0.0016,0.0004,0.0005,0.0009,0.0009,0.001,0.0026,0.0027,0.0005,0.0005,0.0005,0,-0.0022,-0.0018,-0.0014,-0.0013,-0.0012,-0.0007,-0.0008,-0.0007,-0.0004,-0.0002,0.0002,0.0004,0.0006,0.0004,0.0004,0.0002,0.0012,0.0009,0.0008,0.0009,0.0009,0.0025,0.0027,0.0004,0.0004,0.0004,0.0004,0,-0.0023,-0.0019,-0.0018,-0.0016,-0.0017,-0.0015,-0.0015,-0.0014,-0.0009,-0.0008,-0.0007,-0.0005,-0.0001,-0.0003,0.0,0.0002,0.0011,0.0006,0.0012,0.0009,0.0026,0.0028,0.0004,0.0004,0.0004,0.0004,0,0,-0.0022,-0.002,-0.0018,-0.0017,-0.0016,-0.0017,-0.0019,-0.0019,-0.0018,-0.0015,-0.0014,-0.0013,-0.0007,-0.0006,-0.0003,0.0001,0.0013,0.0008,0.0008,0.0026,0.0034,0.011,0.012,0.0009,0.0009,0.0009,0.0047,0,-0.0022,-0.0021,-0.0021,-0.0021,-0.0022,-0.002,-0.0024,-0.0024,-0.0022,-0.002,-0.0017,-0.0014,-0.001,-0.0006,-0.0002,0.0009,0.0018,0.0004,0.0033,0.0034,0.0104,0.0125,0.0159,0.0202,0.0049,0.0049,0.005,0,-0.002,-0.0019,-0.002,-0.0022,-0.0022,-0.0023,-0.0023,-0.0025,-0.0025,-0.0023,-0.0019,-0.0015,-0.0005,-0.0004,0.0018,0.0011,0.0026,0.0033,0.0035,0.0112,0.0115,0.0179,0.0212,0.0054,0.0053,0.0053,0.0053,0,-0.0017,-0.0018,-0.0017,-0.0017,-0.0021,-0.002,-0.0021,-0.0023,-0.0023,-0.0019,-0.0014,-0.0009,0.0005,0.0014,0.0044,0.003,0.0073,0.0052,0.0134,0.014,0.0179,0.0189,0.0069,0.0069,0.0069,0.0069,0.0069,0,-0.0015,-0.0013,-0.0014,-0.0012,-0.0012,-0.0017,-0.0016,-0.0016,-0.0017,-0.0005,-0.001,0.0011,0.0011,0.0038,0.005,0.0118,0.0082,0.0149,0.0159,0.0179,0.0188,0.0062,0.0061,0.007,0.007,0.0069,0.0069,0,-0.0009,-0.0009,-0.0008,-0.001,-0.001,-0.0008,-0.001,-0.0009,-0.0008,0.0008,0.0013,0.0031,0.0087,0.0098,0.0127,0.0147,0.0185,0.0214,0.025,0.0265,0.0242,0.024,0.0305,0.0308,0.0311,0.0313,0.0315,0,-0.0006,-0.0005,-0.0003,-0.0001,0.0001,0.0001,0.0002,-0.0002,0.0004,0.0035,0.0049,0.0103,0.0176,0.0254,0.03,0.0355,0.0282,0.0389,0.0371,0.0266,0.0268,0.0262,0.0256,0.0413,0.0416,0.0418,0.0419,0,-0.0,0.0002,0.0004,0.0012,0.0016,0.0018,0.0024,0.0029,0.004,0.0074,0.0148,0.0216,0.0322,0.0429,0.0496,0.0504,0.0383,0.0436,0.0313,0.0359,0.0374,0.0375,0.0364,0.0438,0.0436,0.0434,0.0433,0.0433,0.0007,0.001,0.0018,0.0028,0.0034,0.0051,0.0071,0.0089,0.0131,0.0216,0.0251,0.0389,0.044,0.0611,0.0605,0.0583,0.0586,0.0545,0.0535,0.0524,0.0542,0.0562,0.0664,0.0663,0.0663,0.0662,0.0662,0,0.0019,0.0028,0.0034,0.0052,0.0071,0.0073,0.0099,0.0138,0.022,0.0328,0.0434,0.052,0.0651,0.0666,0.0711,0.0715,0.0648,0.0649,0.0573,0.056,0.0546,0.0559,0.0688,0.0687,0.0687,0.0686,0,0,0.0026,0.0042,0.005,0.0092,0.0109,0.0156,0.0186,0.0257,0.0344,0.0466,0.0579,0.0714,0.0751,0.0752,0.0738,0.0735,0.0624,0.0699,0.0696,0.06,0.0585,0.0524,0.0536,0,0,0,0,0]},{"header":{"parameterUnit":"m.s-1","parameterCategory":2,"la1":30.2991,"la2":30.254,"lo1":-89.0895,"lo2":-89.0444,"dy":0.0017,"dx":0.0017,"nx":28,"ny":28,"refTime":"2023-09-01T09:00:00:Z","depth":"2","parameterNumber":3,"parameterNumberName":"V-component_of_CURRENTS"},"data":[0,0,0,0,0,0,0,0,0,0,0,0,0,0,0,0,0,0,0,0,0,0,0,0,0,0,0,0,0,0,0,0,0,0,0,0,0,0,0,0,0,0,0,0,0,0,0,0,0,0,0,0,0,0,0,0,0,0,-0.0083,-0.0083,0,-0.0098,-0.0098,-0.0098,-0.0106,-0.0106,-0.0106,-0.0106,-0.012,-0.0121,-0.0121,0,0,0,0,0,0,0,0,0,0,0,0,0,-0.0069,-0.007,-0.0083,-0.0083,-0.0083,-0.0098,-0.0098,-0.0098,-0.0106,-0.0106,-0.0106,-0.0106,-0.012,-0.0121,-0.0121,0,0,0,0,0,0,0,0,0,0,0,0,0,-0.0079,-0.007,-0.0083,-0.0089,-0.0089,-0.0097,-0.0098,-0.0098,-0.0106,-0.0106,-0.0106,-0.0106,-0.012,-0.0121,-0.0121,-0.0125,0,0,-0.0123,-0.0123,0,0,0,0,0,0,0,0,-0.0079,-0.008,-0.0088,-0.0088,-0.0089,-0.0099,-0.0098,-0.0107,-0.0106,-0.01,-0.0106,-0.0106,-0.0113,-0.0114,-0.0117,-0.0126,-0.0127,-0.0123,-0.0123,-0.0124,-0.0124,0,0,0,0,0,0,0,-0.0078,-0.0079,-0.0089,-0.0088,-0.0089,-0.0093,-0.0094,-0.01,-0.0107,-0.01,-0.0101,-0.0102,-0.0113,-0.0117,-0.0118,-0.0127,-0.0123,-0.0124,-0.0124,-0.0124,-0.0139,-0.0139,0,0,0,0,0,0,-0.0075,-0.0078,-0.0089,-0.0089,-0.0083,-0.0093,-0.0095,-0.0096,-0.0107,-0.0108,-0.0102,-0.0102,-0.0116,-0.0117,-0.0118,-0.0124,-0.0124,-0.0124,-0.0125,-0.0139,-0.0139,-0.0139,0,0,0,0,0,0,-0.0075,-0.0076,-0.0088,-0.0084,-0.0086,-0.0093,-0.0095,-0.0097,-0.0101,-0.0108,-0.0109,-0.0105,-0.0116,-0.0118,-0.0124,-0.0124,-0.0124,-0.0125,-0.0139,-0.0139,-0.0139,-0.0134,0,0,0,0,0,0,-0.0074,-0.0076,-0.0077,-0.0084,-0.0086,-0.0093,-0.0095,-0.0097,-0.0102,-0.0102,-0.0111,-0.0112,-0.0116,-0.0123,-0.0125,-0.0125,-0.0125,-0.0139,-0.0139,-0.0139,-0.0134,-0.0134,-0.0134,0,0,0,0,0,-0.0074,-0.0075,-0.0077,-0.0078,-0.0087,-0.0093,-0.0095,-0.01,-0.0102,-0.0104,-0.011,-0.0112,-0.0125,-0.0124,-0.0125,-0.0126,-0.0139,-0.0139,-0.0139,-0.0135,-0.0134,-0.0134,0,0,0,0,0,0,-0.007,-0.0076,-0.0079,-0.0082,-0.0087,-0.0094,-0.0098,-0.0101,-0.0107,-0.0108,-0.0114,-0.0115,-0.0122,-0.0125,-0.0123,-0.0131,-0.0132,-0.0132,-0.0128,-0.0127,-0.0127,-0.0129,-0.0126,0,0,0,0,0,-0.007,-0.0073,-0.0079,-0.0082,-0.0085,-0.0091,-0.0095,-0.0098,-0.0104,-0.0107,-0.0113,-0.0118,-0.0123,-0.0126,-0.0132,-0.0136,-0.0138,-0.0137,-0.0137,-0.0137,-0.014,-0.0141,-0.0141,-0.014,-0.014,-0.014,0,0,-0.0069,-0.0073,-0.0075,-0.0082,-0.0087,-0.0092,-0.0094,-0.0099,-0.0103,-0.0108,-0.0115,-0.0119,-0.0125,-0.013,-0.0133,-0.0132,-0.0138,-0.0137,-0.0137,-0.014,-0.0141,-0.0141,-0.0141,-0.014,-0.014,-0.014,0,0,-0.0071,-0.0074,-0.0078,-0.0082,-0.0089,-0.0093,-0.0094,-0.0101,-0.0104,-0.0111,-0.0115,-0.012,-0.0128,-0.0131,-0.0134,-0.0137,-0.0138,-0.0137,-0.0136,-0.0137,-0.0137,-0.0137,-0.0138,-0.0139,-0.0135,-0.0135,-0.0135,0,-0.007,-0.0077,-0.008,-0.0085,-0.0089,-0.0093,-0.0098,-0.0102,-0.011,-0.0112,-0.0113,-0.0125,-0.013,-0.0134,-0.0135,-0.0136,-0.0137,-0.0136,-0.0137,-0.0137,-0.0137,-0.0138,-0.0139,-0.0135,-0.0135,-0.0135,-0.0135,0,-0.0075,-0.008,-0.0083,-0.0091,-0.0094,-0.01,-0.0104,-0.0107,-0.0111,-0.0115,-0.0121,-0.0127,-0.0133,-0.0133,-0.0136,-0.0138,-0.0138,-0.0137,-0.0137,-0.0137,-0.0138,-0.0139,-0.0134,-0.0134,-0.0134,-0.0134,0,0,-0.0073,-0.0084,-0.0086,-0.0091,-0.0098,-0.0103,-0.0106,-0.0112,-0.0115,-0.012,-0.0124,-0.0132,-0.0134,-0.0137,-0.0138,-0.0138,-0.0139,-0.0137,-0.0137,-0.0138,-0.014,-0.0142,-0.0143,-0.0136,-0.0136,-0.0136,-0.014,0,-0.0077,-0.0087,-0.0091,-0.0101,-0.0106,-0.011,-0.0113,-0.0117,-0.0121,-0.0124,-0.0128,-0.0133,-0.0135,-0.0137,-0.0138,-0.0139,-0.014,-0.0138,-0.0141,-0.0141,-0.0142,-0.0144,-0.0153,-0.0157,-0.014,-0.014,-0.014,0,-0.0082,-0.0088,-0.0097,-0.0107,-0.011,-0.0115,-0.0121,-0.0125,-0.0127,-0.0129,-0.0133,-0.0135,-0.0138,-0.0139,-0.0142,-0.0139,-0.0142,-0.0142,-0.0142,-0.0147,-0.0145,-0.0155,-0.0158,-0.0141,-0.0141,-0.0141,-0.0141,0,-0.0082,-0.0094,-0.0102,-0.0105,-0.0114,-0.0119,-0.0124,-0.0127,-0.013,-0.0133,-0.0134,-0.0137,-0.0137,-0.0141,-0.0142,-0.0142,-0.0143,-0.0143,-0.0149,-0.0149,-0.016,-0.016,-0.0149,-0.0149,-0.0149,-0.0149,-0.0149,0,-0.0086,-0.0093,-0.0104,-0.0108,-0.0117,-0.0122,-0.013,-0.0133,-0.0135,-0.0133,-0.0138,-0.0131,-0.0137,-0.0137,-0.0141,-0.0145,-0.0143,-0.0151,-0.0151,-0.0158,-0.0158,-0.0148,-0.0148,-0.0149,-0.0149,-0.0149,-0.0149,0,-0.0087,-0.0093,-0.0104,-0.0115,-0.0119,-0.0126,-0.0137,-0.014,-0.014,-0.0137,-0.0138,-0.0129,-0.0122,-0.013,-0.0131,-0.0142,-0.0148,-0.015,-0.0158,-0.0158,-0.0154,-0.0154,-0.016,-0.0161,-0.0161,-0.0161,-0.0161,0,-0.0088,-0.0094,-0.011,-0.0116,-0.0123,-0.0133,-0.0139,-0.0144,-0.0144,-0.0129,-0.0125,-0.0116,-0.009,-0.0098,-0.0124,-0.0138,-0.014,-0.0166,-0.0171,-0.0157,-0.0156,-0.0155,-0.0155,-0.0183,-0.0183,-0.0183,-0.0183,0,-0.0091,-0.0099,-0.0107,-0.0118,-0.0128,-0.0137,-0.0143,-0.0141,-0.0137,-0.0113,-0.0073,-0.0046,-0.006,-0.0069,-0.0107,-0.0125,-0.0165,-0.017,-0.0154,-0.0178,-0.0178,-0.0177,-0.0176,-0.0185,-0.0185,-0.0185,-0.0185,-0.0185,-0.0094,-0.0101,-0.0111,-0.012,-0.0128,-0.0131,-0.0124,-0.0107,-0.008,-0.001,-0.0012,0.0071,-0.0006,-0.0009,-0.0096,-0.0175,-0.0161,-0.0186,-0.0185,-0.0185,-0.0186,-0.0187,-0.0195,-0.0195,-0.0195,-0.0195,-0.0195,0,-0.0096,-0.0102,-0.0111,-0.012,-0.012,-0.0126,-0.0116,-0.008,-0.0014,0.0077,0.0146,0.0132,0.0092,0.0018,-0.0108,-0.0198,-0.021,-0.0223,-0.0226,-0.0223,-0.0221,-0.0224,-0.0244,-0.0244,-0.0245,-0.0245,0,0,-0.0097,-0.0105,-0.0109,-0.0106,-0.0106,-0.0088,-0.0071,0.0004,0.0085,0.0208,0.0295,0.0334,0.0196,0.0096,-0.0062,-0.0145,-0.0153,-0.0158,-0.011,-0.0093,-0.009,-0.0194,-0.0195,0,0,0,0,0]}],[{"header":{"parameterUnit":"m.s-1","parameterCategory":2,"la1":30.2991,"la2":30.254,"lo1":-89.0895,"lo2":-89.0444,"dy":0.0017,"dx":0.0017,"nx":28,"ny":28,"refTime":"2023-09-01T09:00:00:Z","depth":"4","parameterNumber":2,"parameterNumberName":"U-component_of_CURRENTS"},"data":[0,0,0,0,0,0,0,0,0,0,0,0,0,0,0,0,0,0,0,0,0,0,0,0,0,0,0,0,0,0,0,0,0,0,0,0,0,0,0,0,0,0,0,0,0,0,0,0,0,0,0,0,0,0,0,0,0,0,-0.0038,-0.0038,0,-0.0029,-0.0029,-0.0029,-0.0016,-0.0016,-0.0015,-0.0015,-0.0004,-0.0004,-0.0004,0,0,0,0,0,0,0,0,0,0,0,0,0,-0.0053,-0.0053,-0.0038,-0.0038,-0.0038,-0.0029,-0.0029,-0.0029,-0.0016,-0.0016,-0.0015,-0.0015,-0.0004,-0.0004,-0.0004,0,0,0,0,0,0,0,0,0,0,0,0,0,-0.0045,-0.0053,-0.0038,-0.003,-0.003,-0.0029,-0.0029,-0.0029,-0.0016,-0.0016,-0.0015,-0.0015,-0.0004,-0.0004,-0.0004,-0.001,0,0,-0.0003,-0.0003,0,0,0,0,0,0,0,0,-0.0046,-0.0045,-0.0032,-0.0031,-0.003,-0.0023,-0.003,-0.0022,-0.0016,-0.0021,-0.0015,-0.0015,-0.001,-0.001,-0.0009,-0.001,-0.0009,-0.0003,-0.0003,-0.0003,-0.0003,0,0,0,0,0,0,0,-0.0046,-0.0045,-0.0035,-0.0032,-0.0031,-0.003,-0.0028,-0.0028,-0.0018,-0.0021,-0.002,-0.0019,-0.001,-0.0009,-0.0009,-0.0009,-0.0003,-0.0003,-0.0003,-0.0003,-0.0006,-0.0007,0,0,0,0,0,0,-0.0047,-0.0046,-0.0035,-0.0035,-0.0037,-0.003,-0.0028,-0.0026,-0.0018,-0.0016,-0.0019,-0.0018,-0.0009,-0.0009,-0.0008,-0.0008,-0.0003,-0.0003,-0.0003,-0.0006,-0.0006,-0.0007,0,0,0,0,0,0,-0.0047,-0.0046,-0.0036,-0.004,-0.0038,-0.003,-0.0027,-0.0026,-0.002,-0.0017,-0.0015,-0.0014,-0.0009,-0.0008,-0.0007,-0.0008,-0.0003,-0.0003,-0.0006,-0.0006,-0.0007,-0.0013,0,0,0,0,0,0,-0.0048,-0.0046,-0.0044,-0.004,-0.0038,-0.0034,-0.0028,-0.0026,-0.002,-0.0019,-0.0012,-0.0011,-0.0009,-0.0007,-0.0006,-0.0007,-0.0003,-0.0006,-0.0006,-0.0006,-0.0012,-0.0013,-0.0014,0,0,0,0,0,-0.0048,-0.0047,-0.0044,-0.0042,-0.0035,-0.0034,-0.0033,-0.0026,-0.002,-0.0019,-0.0015,-0.0011,-0.0008,-0.0007,-0.0006,-0.0007,-0.0006,-0.0006,-0.0006,-0.0012,-0.0013,-0.0014,0,0,0,0,0,0,-0.0052,-0.0046,-0.0042,-0.0038,-0.0036,-0.0032,-0.0029,-0.0025,-0.0021,-0.0017,-0.0013,-0.0012,-0.0012,-0.0009,-0.0008,-0.001,-0.0006,-0.0007,-0.0011,-0.0011,-0.0012,-0.0007,-0.0003,0,0,0,0,0,-0.0052,-0.0048,-0.0044,-0.0041,-0.0039,-0.0033,-0.0031,-0.0027,-0.0023,-0.002,-0.0017,-0.0014,-0.0014,-0.0012,-0.0012,-0.0013,-0.0005,-0.0013,-0.0014,-0.0015,-0.001,-0.0007,-0.0006,-0.0008,-0.0008,-0.0008,0,0,-0.0053,-0.0048,-0.0046,-0.0041,-0.0037,-0.0037,-0.0031,-0.0027,-0.0026,-0.0021,-0.0018,-0.0016,-0.0015,-0.0016,-0.0016,-0.0013,-0.0009,-0.0015,-0.0016,-0.0011,-0.0007,-0.0007,-0.0007,-0.0008,-0.0008,-0.0008,0,0,-0.0054,-0.0047,-0.0045,-0.0043,-0.0038,-0.0036,-0.0034,-0.003,-0.0027,-0.0026,-0.0023,-0.0021,-0.002,-0.002,-0.002,-0.0025,-0.0014,-0.0025,-0.0023,-0.002,-0.0019,-0.0019,-0.0003,-0.0001,-0.0024,-0.0024,-0.0024,0,-0.0055,-0.0051,-0.0045,-0.0044,-0.0042,-0.0036,-0.0036,-0.0035,-0.003,-0.0029,-0.0025,-0.0024,-0.0023,-0.0025,-0.0025,-0.0027,-0.0017,-0.002,-0.002,-0.002,-0.0019,-0.0003,-0.0001,-0.0025,-0.0025,-0.0024,-0.0024,0,-0.0056,-0.0052,-0.0051,-0.0047,-0.0046,-0.0044,-0.0042,-0.004,-0.0035,-0.0034,-0.0033,-0.0031,-0.0029,-0.0031,-0.0028,-0.0025,-0.0017,-0.0022,-0.0017,-0.002,-0.0002,0.0,-0.0025,-0.0025,-0.0025,-0.0025,0,0,-0.0057,-0.0052,-0.005,-0.0049,-0.0046,-0.0045,-0.0046,-0.0045,-0.0044,-0.0041,-0.0039,-0.0039,-0.0033,-0.0033,-0.0031,-0.0026,-0.0014,-0.002,-0.0019,-0.0002,0.0007,0.0062,0.007,-0.0019,-0.0018,-0.0018,0.002,0,-0.0057,-0.0055,-0.0053,-0.0053,-0.0052,-0.0049,-0.0052,-0.0051,-0.0048,-0.0046,-0.0043,-0.0041,-0.0036,-0.0033,-0.0028,-0.0018,-0.0008,-0.0022,0.0005,0.0006,0.0057,0.0074,-0.0018,0.0022,0.0022,0.0023,0.0023,0,-0.0057,-0.0054,-0.0054,-0.0054,-0.0053,-0.0054,-0.0052,-0.0054,-0.0052,-0.005,-0.0046,-0.0042,-0.0032,-0.0031,-0.0008,-0.0016,-0.0001,0.0007,0.0008,0.0064,0.0066,0.0023,0.0027,0.0027,0.0027,0.0026,0.0026,0,-0.0056,-0.0054,-0.0053,-0.0052,-0.0053,-0.0052,-0.0052,-0.0052,-0.0053,-0.0049,-0.0045,-0.0038,-0.0025,-0.0015,0.0015,0.0002,0.0046,0.0025,0.0089,0.0093,0.0032,0.0031,0.0042,0.0042,0.0041,0.0041,0.0041,0,-0.0055,-0.0053,-0.0051,-0.0049,-0.0048,-0.005,-0.005,-0.0049,-0.005,-0.0041,-0.0042,-0.0023,-0.0019,0.0008,0.0022,0.0079,0.0054,0.0101,0.0109,0.003,0.0028,0.0034,0.0033,0.0043,0.0042,0.0042,0.0042,0,-0.0053,-0.0051,-0.0049,-0.0047,-0.0047,-0.0045,-0.0047,-0.0048,-0.0046,-0.0033,-0.0029,-0.0008,0.0045,0.0061,0.0091,0.0103,0.0137,0.0161,0.0095,0.0096,0.0176,0.0174,0.0228,0.023,0.0232,0.0234,0.0235,0,-0.0051,-0.005,-0.0045,-0.0043,-0.004,-0.004,-0.0041,-0.0044,-0.0042,-0.0011,-0.0001,0.0052,0.0076,0.017,0.0177,0.022,0.0221,0.0225,0.0184,0.0195,0.0196,0.0191,0.0186,0.0238,0.0239,0.0239,0.024,0,-0.0049,-0.0045,-0.0041,-0.0034,-0.0032,-0.0033,-0.0031,-0.0029,-0.002,-0.002,0.0053,0.0101,0.0171,0.0215,0.026,0.0279,0.021,0.0246,0.0241,0.0201,0.0208,0.0206,0.0199,0.0247,0.0246,0.0245,0.0245,0,-0.0044,-0.004,-0.0031,-0.0022,-0.002,-0.0014,-0.0021,0.0003,0.0012,0.0045,0.008,0.0148,0.0182,0.025,0.0286,0.0322,0.0314,0.0291,0.0283,0.0276,0.0276,0.029,0.0374,0,0,0,0,0,-0.0039,-0.0027,-0.0021,-0.0009,-0.0006,0.0002,-0.0005,-0.0014,-0.0004,0.0059,0.0071,0.0148,0.0236,0.0268,0.0318,0.0298,0.0299,0.0354,0.0263,0.0285,0.0277,0.0274,0,0,0,0,0,0,-0.0033,-0.0024,-0.0014,0.0008,0.0021,0.0025,0.0026,0.0026,0.0058,0.0078,0.0132,0.0159,0.0243,0.0227,0.0327,0.0335,0.028,0.0393,0.0394,0.029,0.0282,0.0276,0.027,0,0,0,0,0]},{"header":{"parameterUnit":"m.s-1","parameterCategory":2,"la1":30.2991,"la2":30.254,"lo1":-89.0895,"lo2":-89.0444,"dy":0.0017,"dx":0.0017,"nx":28,"ny":28,"refTime":"2023-09-01T09:00:00:Z","depth":"4","parameterNumber":3,"parameterNumberName":"V-component_of_CURRENTS"},"data":[0,0,0,0,0,0,0,0,0,0,0,0,0,0,0,0,0,0,0,0,0,0,0,0,0,0,0,0,0,0,0,0,0,0,0,0,0,0,0,0,0,0,0,0,0,0,0,0,0,0,0,0,0,0,0,0,0,0,-0.0082,-0.0082,0,-0.0098,-0.0098,-0.0098,-0.0106,-0.0106,-0.0106,-0.0106,-0.0124,-0.0124,-0.0124,0,0,0,0,0,0,0,0,0,0,0,0,0,-0.0067,-0.0067,-0.0082,-0.0082,-0.0082,-0.0098,-0.0098,-0.0098,-0.0106,-0.0106,-0.0106,-0.0106,-0.0123,-0.0124,-0.0125,0,0,0,0,0,0,0,0,0,0,0,0,0,-0.0077,-0.0067,-0.0082,-0.0088,-0.0089,-0.0097,-0.0098,-0.0098,-0.0106,-0.0106,-0.0106,-0.0106,-0.0123,-0.0124,-0.0125,-0.0129,0,0,-0.0127,-0.0127,0,0,0,0,0,0,0,0,-0.0076,-0.0078,-0.0087,-0.0088,-0.0088,-0.01,-0.0099,-0.0109,-0.0106,-0.01,-0.0106,-0.0106,-0.0116,-0.0117,-0.012,-0.013,-0.0131,-0.0127,-0.0127,-0.0128,-0.0128,0,0,0,0,0,0,0,-0.0076,-0.0077,-0.0088,-0.0087,-0.0088,-0.0092,-0.0094,-0.0101,-0.0108,-0.0101,-0.0101,-0.0102,-0.0116,-0.012,-0.0121,-0.0131,-0.0127,-0.0127,-0.0128,-0.0128,-0.0145,-0.0145,0,0,0,0,0,0,-0.0073,-0.0076,-0.0088,-0.0089,-0.0082,-0.0093,-0.0094,-0.0096,-0.0108,-0.0109,-0.0102,-0.0103,-0.0118,-0.012,-0.0121,-0.0127,-0.0128,-0.0128,-0.0129,-0.0145,-0.0145,-0.0145,0,0,0,0,0,0,-0.0072,-0.0074,-0.0087,-0.0083,-0.0085,-0.0093,-0.0095,-0.0097,-0.0102,-0.0109,-0.0111,-0.0106,-0.0118,-0.012,-0.0128,-0.0128,-0.0129,-0.0129,-0.0145,-0.0145,-0.0145,-0.0139,0,0,0,0,0,0,-0.0072,-0.0074,-0.0076,-0.0082,-0.0085,-0.0093,-0.0095,-0.0097,-0.0102,-0.0103,-0.0113,-0.0114,-0.0119,-0.0127,-0.0129,-0.0129,-0.013,-0.0145,-0.0145,-0.0145,-0.0139,-0.0138,-0.0138,0,0,0,0,0,-0.0071,-0.0073,-0.0076,-0.0077,-0.0087,-0.0093,-0.0095,-0.01,-0.0103,-0.0105,-0.0111,-0.0114,-0.0128,-0.0127,-0.013,-0.013,-0.0145,-0.0145,-0.0145,-0.0139,-0.0139,-0.0138,0,0,0,0,0,0,-0.0068,-0.0075,-0.0077,-0.0081,-0.0087,-0.0094,-0.0098,-0.0101,-0.0109,-0.011,-0.0116,-0.0118,-0.0125,-0.0129,-0.0127,-0.0135,-0.0137,-0.0137,-0.0131,-0.0131,-0.0131,-0.0132,-0.013,0,0,0,0,0,-0.0068,-0.0072,-0.0078,-0.0082,-0.0084,-0.0092,-0.0095,-0.0099,-0.0105,-0.0109,-0.0115,-0.0121,-0.0127,-0.013,-0.0136,-0.0141,-0.0142,-0.0142,-0.0142,-0.0141,-0.0144,-0.0143,-0.0143,-0.0146,-0.0146,-0.0146,0,0,-0.0068,-0.0072,-0.0075,-0.0081,-0.0087,-0.0091,-0.0094,-0.01,-0.0103,-0.011,-0.0117,-0.0122,-0.0128,-0.0134,-0.0137,-0.0136,-0.0141,-0.0141,-0.0141,-0.0144,-0.0143,-0.0143,-0.0142,-0.0146,-0.0146,-0.0146,0,0,-0.007,-0.0074,-0.0078,-0.0082,-0.0089,-0.0093,-0.0094,-0.0102,-0.0105,-0.0112,-0.0116,-0.0122,-0.0131,-0.0134,-0.0137,-0.0139,-0.0141,-0.014,-0.0138,-0.0137,-0.0137,-0.0137,-0.0136,-0.0136,-0.0138,-0.0138,-0.0138,0,-0.007,-0.0076,-0.008,-0.0084,-0.0087,-0.0093,-0.0097,-0.01,-0.0109,-0.0111,-0.0114,-0.0126,-0.0132,-0.0135,-0.0136,-0.0139,-0.0138,-0.0138,-0.0136,-0.0136,-0.0136,-0.0136,-0.0136,-0.0138,-0.0138,-0.0138,-0.0138,0,-0.0074,-0.0079,-0.0081,-0.0088,-0.0091,-0.0096,-0.01,-0.0104,-0.0109,-0.0112,-0.0119,-0.0125,-0.0132,-0.0133,-0.0136,-0.0137,-0.0137,-0.0137,-0.0137,-0.0135,-0.0135,-0.0135,-0.0137,-0.0137,-0.0137,-0.0138,0,0,-0.0074,-0.0082,-0.0084,-0.0088,-0.0094,-0.0099,-0.0101,-0.0106,-0.0108,-0.0114,-0.0116,-0.0126,-0.0129,-0.0132,-0.0135,-0.0134,-0.0132,-0.0134,-0.0134,-0.0133,-0.013,-0.0131,-0.0131,-0.013,-0.013,-0.013,-0.0129,0,-0.0077,-0.0084,-0.0088,-0.0096,-0.01,-0.0103,-0.0105,-0.0108,-0.0112,-0.0114,-0.0118,-0.0123,-0.0128,-0.0131,-0.0131,-0.0132,-0.0132,-0.0132,-0.0133,-0.0133,-0.0133,-0.0131,-0.013,-0.0129,-0.0129,-0.0129,-0.0129,0,-0.0082,-0.0086,-0.0093,-0.01,-0.0102,-0.0107,-0.0111,-0.0114,-0.0114,-0.0116,-0.0119,-0.0121,-0.0123,-0.0127,-0.0129,-0.0128,-0.0131,-0.0131,-0.0131,-0.0135,-0.0134,-0.0131,-0.0129,-0.0129,-0.0129,-0.0129,-0.0129,0,-0.0083,-0.0092,-0.0098,-0.0101,-0.0107,-0.0111,-0.0115,-0.0116,-0.0117,-0.0118,-0.0117,-0.0119,-0.0119,-0.0123,-0.0126,-0.0127,-0.0124,-0.0126,-0.0131,-0.0131,-0.0133,-0.0133,-0.013,-0.013,-0.013,-0.013,-0.013,0,-0.0086,-0.0093,-0.0101,-0.0105,-0.0112,-0.0115,-0.0121,-0.0123,-0.0121,-0.0117,-0.012,-0.0112,-0.0117,-0.0116,-0.0122,-0.0125,-0.0122,-0.0132,-0.0131,-0.013,-0.013,-0.0132,-0.0133,-0.013,-0.013,-0.013,-0.013,0,-0.009,-0.0094,-0.0103,-0.0111,-0.0115,-0.0122,-0.0128,-0.0129,-0.0126,-0.012,-0.0119,-0.0107,-0.0101,-0.0108,-0.0109,-0.0118,-0.0123,-0.0126,-0.0123,-0.0122,-0.0131,-0.0131,-0.0132,-0.0132,-0.0132,-0.0132,-0.0132,0,-0.0092,-0.0097,-0.011,-0.0116,-0.0122,-0.0131,-0.0135,-0.0135,-0.0131,-0.0112,-0.0105,-0.0095,-0.0089,-0.0082,-0.0098,-0.0113,-0.0117,-0.0125,-0.0132,-0.0132,-0.0132,-0.0132,-0.0132,-0.0132,-0.0132,-0.0132,-0.0132,0,-0.0097,-0.0104,-0.0111,-0.0122,-0.0131,-0.0137,-0.014,-0.0134,-0.0124,-0.0121,-0.008,-0.0075,-0.0066,-0.0068,-0.0083,-0.0095,-0.0123,-0.0126,-0.0126,-0.0132,-0.0133,-0.0132,-0.0132,-0.0132,-0.0132,-0.0132,-0.0132,0,-0.0103,-0.0111,-0.012,-0.0129,-0.0136,-0.0135,-0.0139,-0.0122,-0.0114,-0.0085,-0.0069,-0.0055,-0.0045,-0.0059,-0.0071,-0.0086,-0.0093,-0.0102,-0.0104,-0.0104,-0.01,-0.0097,-0.0085,0,0,0,0,0,-0.0109,-0.0116,-0.0125,-0.0133,-0.0136,-0.0139,-0.0136,-0.0134,-0.0119,-0.0085,-0.0073,-0.006,-0.0059,-0.0056,-0.007,-0.0092,-0.0114,-0.0111,-0.013,-0.0133,-0.0133,-0.0134,0,0,0,0,0,0,-0.0113,-0.0123,-0.0127,-0.0129,-0.0132,-0.0135,-0.0131,-0.0123,-0.01,-0.0079,-0.0072,-0.0067,-0.0066,-0.0045,-0.0067,-0.0074,-0.0089,-0.0112,-0.0112,-0.0133,-0.0133,-0.0133,-0.0134,0,0,0,0,0]}]]